STARLINK-74 (44293 NORAD) Tracking and Keplerian Element Data

This shows tracking and keplerian element data for the satellite.

Feedback or suggestion? Click here.




ElementValue
Catalog44293
NameSTARLINK-74
Epoch Orbit7653
Epoch Day272.77440637
Epoch Year2020
RAAN48.1405
Inclination52.9971
Eccentricity0.0002076
Argument of Perigee323.1313
Mean Anonmoly37.5805
Mean Motion16.29892189
Decay Rate0.1135935
L11 44293U 19029BL 20272.77440637 .11359350 12115-4 24534-2 0 9995
L22 44293 52.9971 48.1405 0002076 323.1313 37.5805 16.29892189 76534



Live tracking and technical data element details for STARLINK-74 (NORAD 44293). STARLINK-74 can be tracked NOW for your location showing map with azimuth and elevation plus other details from your city location.







IsCatalogInMostPopularTable: catalog: 44293, numindb: 344
Update: records affected: 1



GetName: 44293 STARLINK-74

Hit Count: updated at: Thu, 15 May 2025 19:35:12 GMT